Theta_e
316 316 316 315 315 315 315 316 317 316 316 315 316 316 313 312 310 306 306 306 306 306 307 307 307 308 309 314 315 315 315 315 314 310 308 306 306 304 304 301 302 302 303
317 316 316 315 314 314 313 312 312 312 312 312 312 311 310 307 307 304 304 304 305 305 304 304 304 306 308 310 311 311 311 312 311 307 307 306 305 302 306 305 304 304 303
315 315 314 313 312 311 311 310 309 307 306 306 306 306 306 304 304 304 303 302 301 301 301 301 301 302 305 307 308 308 309 308 308 307 307 306 306 307 306 305 306 306 304
312 312 312 311 310 310 309 308 307 306 305 304 303 303 302 302 301 300 300 300 300 300 299 298 299 300 300 301 303 307 307 307 307 307 307 307 307 307 307 307 307 307 306
312 311 310 309 309 309 308 307 305 304 303 302 302 301 301 301 301 301 300 300 300 300 299 300 301 304 302 302 302 306 303 307 307 307 307 308 308 308 308 308 307 306 305
309 308 308 308 308 307 306 305 304 303 302 303 302 301 300 301 300 300 300 301 301 301 301 303 302 301 301 302 303 303 305 308 308 308 308 308 309 308 308 308 306 305 304
308 308 307 307 307 306 305 303 304 304 304 304 303 302 302 303 301 302 302 303 303 302 300 300 301 302 302 303 303 304 304 305 306 308 309 309 309 309 308 308 306 305 303
307 307 306 305 305 304 303 303 303 304 304 304 304 304 303 302 300 301 300 301 301 299 300 302 303 302 303 305 306 306 307 307 306 306 307 308 308 308 306 305 304 301 301
306 305 307 307 305 303 303 302 301 302 302 302 302 303 304 302 301 300 300 301 302 301 302 302 304 306 306 305 305 307 308 308 308 306 306 304 303 304 301 300 299 299 301
306 305 306 306 305 304 302 302 302 303 302 302 301 301 301 301 301 300 300 302 302 303 304 302 303 304 305 305 306 307 309 308 308 306 299 299 299 299 297 296 297 299 299
305 306 305 306 306 304 304 304 304 304 303 303 303 303 303 301 302 299 300 302 304 305 306 307 306 306 306 306 305 307 308 307 306 304 304 304 304 303 301 301 301 301 300
307 306 305 305 303 305 305 305 305 304 304 304 304 304 303 302 301 302 303 303 305 307 308 309 309 309 306 305 304 303 301 301 302 303 303 302 302 301 300 301 301 300 300
308 306 305 305 305 306 305 307 307 307 308 308 307 307 307 307 306 305 306 306 306 307 308 308 308 304 301 300 300 299 297 297 301 302 302 302 301 300 301 301 301 300 301
309 309 308 306 307 306 306 306 308 309 309 308 309 308 307 307 307 307 307 307 307 307 304 302 299 298 298 301 302 297 295 300 302 302 301 301 301 301 301 301 300 301 301
310 310 309 309 307 308 308 308 308 309 309 310 310 310 309 309 310 309 310 310 309 308 306 305 303 302 301 302 302 302 303 303 302 302 301 301 301 302 301 301 301 301 301
309 309 309 308 308 308 308 308 307 308 307 307 308 308 310 307 308 305 304 306 307 306 301 301 302 301 301 301 301 302 303 303 302 302 302 302 302 302 302 302 301 301 301
310 309 308 307 308 308 308 308 308 308 306 306 307 307 307 307 304 304 302 303 304 303 299 302 302 302 302 303 303 303 303 304 304 303 303 303 303 303 302 302 301 300 300
309 308 309 308 307 308 308 309 308 308 310 310 308 308 307 305 304 305 305 303 301 300 301 303 304 305 305 305 305 305 305 305 305 304 304 303 303 303 302 302 301 300 300
309 309 309 308 308 308 308 308 308 308 308 309 309 308 306 306 306 307 307 307 306 306 306 305 306 306 306 306 306 306 306 305 305 305 304 304 303 302 301 300 299 299 299
310 309 309 309 308 308 308 308 308 309 309 308 308 308 309 307 306 306 306 306 307 307 307 307 307 307 307 307 306 306 306 305 305 304 303 302 301 300 299 298 298 298 298
311 311 309 308 309 309 309 309 308 309 309 309 309 308 308 309 308 307 307 307 307 307 306 306 306 306 306 306 306 305 305 304 303 302 301 299 298 299 297 297 296 296 297
311 311 311 311 309 309 309 309 309 309 309 309 308 308 308 308 308 306 306 306 306 306 306 306 306 306 305 305 304 303 302 301 300 299 297 297 298 297 296 295 295 297 297
313 313 311 311 311 310 309 309 309 309 309 309 308 308 309 309 309 306 305 306 306 306 306 306 305 304 302 302 302 300 299 298 297 296 296 296 296 296 295 295 296 296 295
312 311 312 312 311 311 311 310 309 309 309 309 309 310 309 309 308 307 307 306 305 305 304 303 302 301 300 299 298 297 296 295 295 295 295 295 295 295 295 295 295 294 294
312 312 312 312 311 311 311 310 311 311 311 310 310 310 310 309 308 306 305 304 303 302 301 301 300 298 295 295 295 295 294 294 294 294 294 294 294 294 294 294 293 293 292
312 312 312 312 312 311 311 311 311 311 311 311 311 309 307 305 303 303 303 301 300 299 297 295 294 294 293 293 293 293 293 293 293 292 292 293 294 293 293 293 291 290 290
Wind_Speed
1 2 1 2 2 4 8 12 17 24 24 24 24 26 29 26 25 18 14 13 13 15 19 17 16 15 20 20 23 26 17 16 17 14 16 15 12 9 8 7 8 8 10
6 6 6 5 6 8 10 12 12 14 14 15 18 19 20 23 28 24 19 15 11 11 11 13 11 13 15 18 20 20 19 15 18 19 15 12 10 10 8 9 9 8 10
4 5 6 8 11 13 14 13 13 12 13 14 15 19 24 26 25 26 23 19 16 12 11 12 12 14 15 15 14 13 14 14 14 13 11 9 7 8 8 9 10 10 13
2 1 3 6 7 8 10 11 11 10 11 11 13 17 17 23 25 22 19 17 15 14 14 16 18 16 16 18 18 14 15 13 14 11 9 8 8 10 8 10 10 10 13
4 6 6 4 4 5 7 9 10 10 10 13 14 14 12 13 16 19 18 16 16 16 18 17 17 16 19 15 13 13 15 11 10 10 9 9 8 9 8 8 11 12 14
11 8 7 8 9 9 10 11 10 10 11 13 12 11 14 12 14 16 17 17 15 17 18 15 14 13 12 13 13 12 13 9 9 8 7 7 8 10 9 11 12 14 16
6 6 7 9 10 11 14 16 13 13 12 12 15 15 15 14 18 16 16 16 16 16 15 12 11 11 12 10 10 10 10 10 11 10 8 8 10 11 13 13 13 15 18
8 9 6 5 5 9 16 17 18 15 14 13 14 13 12 15 19 16 13 11 9 10 13 13 9 9 10 10 8 7 7 8 9 11 10 10 12 13 13 14 16 18 18
11 9 8 8 3 4 14 18 14 18 19 17 13 11 14 13 17 18 20 15 10 12 13 12 12 11 10 9 10 10 10 10 14 17 17 18 18 19 19 18 17 18 20
11 11 10 9 8 7 7 12 12 11 9 9 12 16 20 19 22 21 19 16 17 13 13 14 15 14 15 14 13 12 10 10 12 14 13 15 17 19 19 22 19 20 22
13 8 8 8 10 8 9 11 11 11 10 11 12 13 14 15 15 16 14 13 12 12 12 12 14 16 16 15 13 13 13 13 14 16 15 15 15 16 17 19 18 19 22
11 12 9 7 15 10 13 13 12 11 11 10 11 12 14 13 12 13 14 15 13 14 13 11 12 16 14 15 16 16 17 17 15 15 15 15 17 18 18 19 20 23 24
11 10 9 9 9 11 12 12 13 13 13 14 14 15 15 15 15 14 13 14 15 15 10 13 16 16 14 15 16 16 15 17 15 15 16 18 19 19 19 20 21 23 25
12 13 14 15 15 15 14 13 12 12 12 12 13 13 12 13 14 14 15 15 15 15 15 16 16 13 14 11 13 16 16 15 15 17 19 19 19 18 19 21 23 24 27
11 9 10 11 13 13 14 13 13 12 11 11 10 9 9 9 11 11 11 11 12 13 12 9 10 11 10 11 12 13 14 15 17 17 18 17 18 19 22 22 25 27 30
13 11 13 12 13 13 13 13 16 15 15 12 10 8 6 9 11 13 14 16 18 17 14 13 11 11 12 13 15 16 17 18 17 18 19 20 22 24 26 27 28 30 33
16 14 14 16 15 15 14 15 15 15 16 15 14 13 12 13 11 8 7 12 14 16 15 13 13 15 16 17 18 18 18 18 19 21 24 25 27 29 30 31 32 32 33
19 20 17 17 17 17 17 17 17 15 14 13 13 12 14 14 14 13 12 11 13 17 17 17 17 17 17 18 18 20 21 22 23 24 26 28 29 31 33 33 33 34 32
21 19 19 20 19 18 18 18 18 17 16 15 12 12 12 16 17 18 19 19 17 18 18 17 17 18 18 19 20 22 23 25 26 27 27 28 28 29 32 33 33 33 30
21 22 20 18 19 19 19 19 19 19 18 18 17 16 13 16 18 20 22 23 22 22 21 20 20 20 21 22 24 25 26 26 26 27 26 25 26 26 28 32 32 36 32
22 21 24 23 21 21 21 22 21 22 21 22 21 19 19 18 17 18 19 18 18 18 19 20 20 21 22 23 23 24 25 24 23 23 22 25 29 31 25 24 24 24 25
25 25 25 25 26 26 25 24 24 23 24 24 23 21 22 20 20 20 21 20 19 18 18 19 20 21 21 21 20 22 21 22 25 25 28 28 28 24 21 23 20 17 19
24 27 31 30 28 30 30 30 29 28 28 27 25 24 22 20 20 19 19 19 19 18 17 15 15 19 17 22 25 27 23 17 21 21 20 19 17 15 13 12 13 16 19
25 27 27 30 31 31 29 29 31 31 33 32 31 30 30 24 19 17 16 16 19 19 24 24 21 19 19 20 18 16 15 15 14 13 11 12 15 13 8 10 13 17 20
22 26 31 31 32 33 32 33 32 31 30 31 34 30 26 20 20 23 24 23 23 22 20 20 19 17 15 13 12 14 14 12 12 12 12 10 7 8 10 13 15 18 20
16 18 22 27 30 32 34 34 32 30 27 25 21 14 18 24 19 22 21 20 17 14 11 8 8 9 9 8 10 9 9 8 6 6 6 7 9 10 12 15 17 19 20
Wind_Direction
340 332 329 99 179 228 236 231 239 242 237 229 225 219 215 210 192 175 192 160 181 164 162 173 174 191 192 181 177 181 166 184 180 180 188 195 205 212 241 252 272 273 286
266 258 236 211 180 170 167 168 180 195 197 206 200 197 193 180 179 171 183 180 171 166 162 163 163 186 183 181 183 172 163 163 174 173 177 193 202 224 224 256 267 269 274
277 269 231 210 185 170 162 158 156 150 147 155 168 168 171 172 169 177 181 176 178 171 154 141 168 174 160 169 173 165 164 173 169 167 172 184 205 220 263 278 276 277 292
56 126 133 145 151 155 155 150 146 150 149 143 144 152 159 157 156 153 161 165 157 146 146 157 159 166 167 172 160 152 146 153 158 153 162 194 207 236 240 256 272 283 285
149 135 144 158 162 168 167 156 144 140 136 138 136 130 130 138 148 159 159 156 159 160 161 164 167 171 166 157 152 161 159 152 155 168 183 204 222 235 255 271 275 281 285
184 186 188 197 193 190 172 159 146 142 145 152 154 151 143 149 150 145 148 153 162 168 169 171 174 164 161 171 171 166 162 157 164 184 204 222 240 258 269 276 277 282 285
204 227 235 228 223 202 175 159 153 150 151 156 157 156 148 162 167 166 167 166 168 174 173 173 171 180 174 175 172 175 178 182 190 204 223 243 258 265 268 269 274 275 279
222 244 228 192 189 184 172 171 162 149 153 155 158 162 163 165 167 164 163 153 152 175 183 184 180 181 185 185 194 207 217 239 259 261 261 258 264 260 261 270 272 280 284
245 205 194 174 153 164 186 198 199 200 190 185 177 169 166 175 173 168 172 181 207 210 205 198 207 208 213 219 229 239 247 255 264 264 269 274 270 268 271 269 272 275 277
218 180 179 181 170 154 130 157 168 151 152 152 157 177 177 174 178 193 198 205 220 212 222 216 217 220 231 237 247 253 255 256 259 268 280 266 265 266 265 267 265 268 276
183 186 191 188 180 163 162 174 174 180 189 193 199 204 207 215 225 226 194 191 207 217 219 230 232 232 242 249 254 247 251 248 257 254 257 262 265 268 270 269 258 261 273
181 202 202 187 183 190 191 183 179 179 180 184 186 196 210 203 199 203 206 214 214 224 227 229 238 251 249 256 257 256 257 255 255 254 258 262 264 264 260 256 260 263 267
197 208 170 181 192 198 202 197 196 200 200 201 205 212 210 217 213 216 224 230 234 240 238 240 234 251 250 250 246 252 254 256 250 254 260 264 267 266 260 262 270 276 282
211 219 228 211 215 216 218 212 218 219 215 218 213 219 219 219 218 217 221 229 234 234 238 247 250 248 245 234 248 252 253 246 248 255 259 263 265 266 268 273 276 280 283
231 235 220 210 212 217 214 217 220 224 222 219 222 220 219 222 223 221 211 222 229 229 227 228 247 239 240 245 247 245 247 250 252 256 262 269 274 277 276 277 276 280 280
223 219 216 211 210 210 212 219 223 222 226 227 227 232 229 241 231 243 232 221 222 227 234 231 239 239 240 243 245 247 249 253 258 265 270 274 275 277 279 279 278 279 280
223 222 219 214 214 217 222 222 223 231 237 236 239 243 240 228 231 242 242 231 232 238 233 234 239 241 243 243 249 256 263 268 271 272 275 277 278 279 279 281 280 279 280
224 226 227 228 226 227 229 227 226 230 228 236 239 245 245 233 231 244 249 247 245 239 229 237 241 245 249 255 262 268 273 276 277 278 278 279 279 280 279 278 275 277 275
220 222 229 230 230 229 227 226 227 232 239 241 240 243 256 231 234 243 246 244 241 241 244 248 252 257 262 268 273 277 279 279 279 278 278 279 279 279 278 275 275 273 271
223 223 223 227 226 226 226 229 232 234 238 237 238 241 234 220 230 243 246 250 246 249 250 255 262 267 270 274 278 278 279 279 279 279 279 280 283 284 273 271 269 270 277
227 229 230 224 225 230 231 234 236 238 241 243 243 242 236 238 247 247 242 251 257 254 252 258 264 268 271 276 279 279 279 280 280 281 279 283 281 281 280 282 279 276 279
234 235 233 233 232 233 236 237 241 242 245 244 244 245 243 245 252 253 252 252 253 255 256 260 264 271 275 274 271 264 265 271 276 285 285 285 284 285 288 291 285 274 280
234 240 239 237 239 239 238 238 240 242 246 249 245 250 262 249 248 253 252 252 253 253 253 250 254 266 263 261 267 277 285 282 282 291 289 288 291 294 289 277 279 285 291
231 238 246 243 241 239 241 242 241 242 242 245 247 249 247 239 245 240 232 230 230 235 254 268 268 269 271 275 269 270 275 282 286 288 286 292 300 295 281 282 285 292 298
238 241 243 243 240 241 242 243 242 241 236 241 242 239 243 229 224 220 233 243 245 251 256 260 269 268 269 270 275 283 285 280 278 285 292 295 309 303 287 290 295 297 301
244 246 246 244 242 238 245 242 239 239 236 234 234 208 214 213 214 231 237 234 237 239 245 255 269 274 282 288 282 284 286 289 298 303 297 298 285 287 290 290 295 302 304